Year,Month,Day,Hour,Minute,Value (Times are PST for temperature in C)
2007,05,27,00,00,9.90
2007,05,27,00,01,9.80
2007,05,27,00,02,9.80
2007,05,27,00,03,9.80
2007,05,27,00,04,9.80
2007,05,27,00,05,9.80
2007,05,27,00,06,9.80
2007,05,27,00,07,9.80
2007,05,27,00,08,9.80
2007,05,27,00,09,9.80
2007,05,27,00,10,9.80
2007,05,27,00,11,9.80
2007,05,27,00,12,9.80
2007,05,27,00,13,9.80
2007,05,27,00,14,9.80
2007,05,27,00,15,9.80
2007,05,27,00,16,9.80
2007,05,27,00,17,9.80
2007,05,27,00,18,9.80
2007,05,27,00,19,9.90
2007,05,27,00,20,9.90
2007,05,27,00,21,9.90
2007,05,27,00,22,9.90
2007,05,27,00,23,9.90
2007,05,27,00,24,9.90
2007,05,27,00,25,9.90
2007,05,27,00,26,10.00
2007,05,27,00,27,10.00
2007,05,27,00,28,10.00
2007,05,27,00,29,10.00
2007,05,27,00,30,10.00
2007,05,27,00,31,10.00
2007,05,27,00,32,10.00
2007,05,27,00,33,10.00
2007,05,27,00,34,10.00
2007,05,27,00,35,10.00
2007,05,27,00,36,10.00
2007,05,27,00,37,10.00
2007,05,27,00,38,10.00
2007,05,27,00,39,10.00
2007,05,27,00,40,10.00
2007,05,27,00,41,10.00
2007,05,27,00,42,10.00
2007,05,27,00,43,10.00
2007,05,27,00,44,10.00
2007,05,27,00,45,10.00
2007,05,27,00,46,9.90
2007,05,27,00,47,9.90
2007,05,27,00,48,9.90
2007,05,27,00,49,9.90
2007,05,27,00,50,9.90
2007,05,27,00,51,9.90
2007,05,27,00,52,9.90
2007,05,27,00,53,9.90
2007,05,27,00,54,9.90
2007,05,27,00,55,9.90
2007,05,27,00,56,9.90
2007,05,27,00,57,9.90
2007,05,27,00,58,9.90
2007,05,27,00,59,9.90
2007,05,27,01,00,9.90
2007,05,27,01,01,9.90
2007,05,27,01,02,9.90
2007,05,27,01,03,9.90
2007,05,27,01,04,9.90
2007,05,27,01,05,9.90
2007,05,27,01,06,9.80
2007,05,27,01,07,9.80
2007,05,27,01,08,9.80
2007,05,27,01,09,9.80
2007,05,27,01,10,9.80
2007,05,27,01,11,9.80
2007,05,27,01,12,9.80
2007,05,27,01,13,9.80
2007,05,27,01,14,9.80
2007,05,27,01,15,9.80
2007,05,27,01,16,9.80
2007,05,27,01,17,9.80
2007,05,27,01,18,9.80
2007,05,27,01,19,9.70
2007,05,27,01,20,9.70
2007,05,27,01,21,9.70
2007,05,27,01,22,9.70
2007,05,27,01,23,9.70
2007,05,27,01,24,9.70
2007,05,27,01,25,9.70
2007,05,27,01,26,9.70
2007,05,27,01,27,9.70
2007,05,27,01,28,9.60
2007,05,27,01,29,9.60
2007,05,27,01,30,9.60
2007,05,27,01,31,9.60
2007,05,27,01,32,9.60
2007,05,27,01,33,9.60
2007,05,27,01,34,9.60
2007,05,27,01,35,9.60
2007,05,27,01,36,9.60
2007,05,27,01,37,9.60
2007,05,27,01,38,9.60
2007,05,27,01,39,9.60
2007,05,27,01,40,9.50
2007,05,27,01,41,9.50
2007,05,27,01,42,9.50
2007,05,27,01,43,9.50
2007,05,27,01,44,9.50
2007,05,27,01,45,9.50
2007,05,27,01,46,9.40
2007,05,27,01,47,9.40
2007,05,27,01,48,9.40
2007,05,27,01,49,9.40
2007,05,27,01,50,9.40
2007,05,27,01,51,9.40
2007,05,27,01,52,9.40
2007,05,27,01,53,9.40
2007,05,27,01,54,9.40
2007,05,27,01,55,9.40
2007,05,27,01,56,9.40
2007,05,27,01,57,9.40
2007,05,27,01,58,9.30
2007,05,27,01,59,9.30
2007,05,27,02,00,9.30
2007,05,27,02,01,9.40
2007,05,27,02,02,9.40
2007,05,27,02,03,9.40
2007,05,27,02,04,9.40
2007,05,27,02,05,9.40
2007,05,27,02,06,9.40
2007,05,27,02,07,9.40
2007,05,27,02,08,9.40
2007,05,27,02,09,9.40
2007,05,27,02,10,9.40
2007,05,27,02,11,9.40
2007,05,27,02,12,9.40
2007,05,27,02,13,9.40
2007,05,27,02,14,9.40
2007,05,27,02,15,9.40
2007,05,27,02,16,9.40
2007,05,27,02,17,9.40
2007,05,27,02,18,9.40
2007,05,27,02,19,9.40
2007,05,27,02,20,9.40
2007,05,27,02,21,9.40
2007,05,27,02,22,9.40
2007,05,27,02,23,9.40
2007,05,27,02,24,9.40
2007,05,27,02,25,9.40
2007,05,27,02,26,9.40
2007,05,27,02,27,9.40
2007,05,27,02,28,9.40
2007,05,27,02,29,9.40
2007,05,27,02,30,9.40
2007,05,27,02,31,9.40
2007,05,27,02,32,9.40
2007,05,27,02,33,9.40
2007,05,27,02,34,9.40
2007,05,27,02,35,9.40
2007,05,27,02,36,9.50
2007,05,27,02,37,9.40
2007,05,27,02,38,9.40
2007,05,27,02,39,9.40
2007,05,27,02,40,9.40
2007,05,27,02,41,9.40
2007,05,27,02,42,9.40
2007,05,27,02,43,9.40
2007,05,27,02,44,9.40
2007,05,27,02,45,9.50
2007,05,27,02,46,9.50
2007,05,27,02,47,9.50
2007,05,27,02,48,9.50
2007,05,27,02,49,9.50
2007,05,27,02,50,9.50
2007,05,27,02,51,9.50
2007,05,27,02,52,9.50
2007,05,27,02,53,9.50
2007,05,27,02,54,9.50
2007,05,27,02,55,9.50
2007,05,27,02,56,9.50
2007,05,27,02,57,9.50
2007,05,27,02,58,9.50
2007,05,27,02,59,9.50
2007,05,27,03,00,9.50
2007,05,27,03,01,9.50
2007,05,27,03,02,9.60
2007,05,27,03,03,9.60
2007,05,27,03,04,9.60
2007,05,27,03,05,9.60
2007,05,27,03,06,9.60
2007,05,27,03,07,9.60
2007,05,27,03,08,9.50
2007,05,27,03,09,9.50
2007,05,27,03,10,9.50
2007,05,27,03,11,9.50
2007,05,27,03,12,9.50
2007,05,27,03,13,9.40
2007,05,27,03,14,9.40
2007,05,27,03,15,9.40
2007,05,27,03,16,9.40
2007,05,27,03,17,9.40
2007,05,27,03,18,9.40
2007,05,27,03,19,9.40
2007,05,27,03,20,9.40
2007,05,27,03,21,9.40
2007,05,27,03,22,9.40
2007,05,27,03,23,9.40
2007,05,27,03,24,9.40
2007,05,27,03,25,9.40
2007,05,27,03,26,9.40
2007,05,27,03,27,9.40
2007,05,27,03,28,9.40
2007,05,27,03,29,9.40
2007,05,27,03,30,9.40
2007,05,27,03,31,9.40
2007,05,27,03,32,9.40
2007,05,27,03,33,9.40
2007,05,27,03,34,9.40
2007,05,27,03,35,9.50
2007,05,27,03,36,9.50
2007,05,27,03,37,9.50
2007,05,27,03,38,9.50
2007,05,27,03,39,9.50
2007,05,27,03,40,9.50
2007,05,27,03,41,9.50
2007,05,27,03,42,9.50
2007,05,27,03,43,9.40
2007,05,27,03,44,9.50
2007,05,27,03,45,9.50
2007,05,27,03,46,9.50
2007,05,27,03,47,9.50
2007,05,27,03,48,9.40
2007,05,27,03,49,9.40
2007,05,27,03,50,9.50
2007,05,27,03,51,9.50
2007,05,27,03,52,9.40
2007,05,27,03,53,9.40
2007,05,27,03,54,9.40
2007,05,27,03,55,9.40
2007,05,27,03,56,9.40
2007,05,27,03,57,9.40
2007,05,27,03,58,9.40
2007,05,27,03,59,9.40
2007,05,27,04,00,9.40
2007,05,27,04,01,9.40
2007,05,27,04,02,9.40
2007,05,27,04,03,9.40
2007,05,27,04,04,9.40
2007,05,27,04,05,9.40
2007,05,27,04,06,9.40
2007,05,27,04,07,9.40
2007,05,27,04,08,9.40
2007,05,27,04,09,9.40
2007,05,27,04,10,9.40
2007,05,27,04,11,9.40
2007,05,27,04,12,9.40
2007,05,27,04,13,9.40
2007,05,27,04,14,9.40
2007,05,27,04,15,9.40
2007,05,27,04,16,9.40
2007,05,27,04,17,9.40
2007,05,27,04,18,9.40
2007,05,27,04,19,9.40
2007,05,27,04,20,9.40
2007,05,27,04,21,9.40
2007,05,27,04,22,9.40
2007,05,27,04,23,9.40
2007,05,27,04,24,9.40
2007,05,27,04,25,9.40
2007,05,27,04,26,9.40
2007,05,27,04,27,9.40
2007,05,27,04,28,9.40
2007,05,27,04,29,9.40
2007,05,27,04,30,9.40
2007,05,27,04,31,9.40
2007,05,27,04,32,9.40
2007,05,27,04,33,9.40
2007,05,27,04,34,9.40
2007,05,27,04,35,9.40
2007,05,27,04,36,9.30
2007,05,27,04,37,9.30
2007,05,27,04,38,9.30
2007,05,27,04,39,9.30
2007,05,27,04,40,9.30
2007,05,27,04,41,9.30
2007,05,27,04,42,9.30
2007,05,27,04,43,9.30
2007,05,27,04,44,9.30
2007,05,27,04,45,9.30
2007,05,27,04,46,9.30
2007,05,27,04,47,9.30
2007,05,27,04,48,9.30
2007,05,27,04,49,9.30
2007,05,27,04,50,9.30
2007,05,27,04,51,9.30
2007,05,27,04,52,9.30
2007,05,27,04,53,9.30
2007,05,27,04,54,9.30
2007,05,27,04,55,9.30
2007,05,27,04,56,9.30
2007,05,27,04,57,9.30
2007,05,27,04,58,9.30
2007,05,27,04,59,9.30
2007,05,27,05,00,9.30
2007,05,27,05,01,9.30
2007,05,27,05,02,9.30
2007,05,27,05,03,9.30
2007,05,27,05,04,9.30
2007,05,27,05,05,9.30
2007,05,27,05,06,9.30
2007,05,27,05,07,9.30
2007,05,27,05,08,9.30
2007,05,27,05,09,9.30
2007,05,27,05,10,9.30
2007,05,27,05,11,9.30
2007,05,27,05,12,9.30
2007,05,27,05,13,9.30
2007,05,27,05,14,9.30
2007,05,27,05,15,9.30
2007,05,27,05,16,9.30
2007,05,27,05,17,9.40
2007,05,27,05,18,9.40
2007,05,27,05,19,9.40
2007,05,27,05,20,9.40
2007,05,27,05,21,9.40
2007,05,27,05,22,9.40
2007,05,27,05,23,9.40
2007,05,27,05,24,9.30
2007,05,27,05,25,9.30
2007,05,27,05,26,9.30
2007,05,27,05,27,9.30
2007,05,27,05,28,9.30
2007,05,27,05,29,9.30
2007,05,27,05,30,9.30
2007,05,27,05,31,9.30
2007,05,27,05,32,9.30
2007,05,27,05,33,9.30
2007,05,27,05,34,9.30
2007,05,27,21,09,10.30
2007,05,27,21,10,10.30
2007,05,27,21,11,10.30
2007,05,27,21,12,10.30
2007,05,27,21,13,10.30
2007,05,27,21,14,10.30
2007,05,27,21,15,10.30
2007,05,27,21,16,10.30
2007,05,27,21,17,10.30
2007,05,27,21,18,10.30
2007,05,27,21,19,10.30
2007,05,27,21,20,10.30
2007,05,27,21,21,10.20
2007,05,27,21,22,10.20
2007,05,27,21,23,10.20
2007,05,27,21,24,10.20
2007,05,27,21,25,10.20
2007,05,27,21,26,10.20
2007,05,27,21,27,10.20
2007,05,27,21,28,10.20
2007,05,27,21,29,10.20
2007,05,27,21,30,10.20
2007,05,27,21,31,10.20
2007,05,27,21,32,10.20
2007,05,27,21,33,10.20
2007,05,27,21,34,10.20
2007,05,27,21,35,10.20
2007,05,27,21,36,10.20
2007,05,27,21,37,10.20
2007,05,27,21,38,10.20
2007,05,27,21,39,10.20
2007,05,27,21,40,10.20
2007,05,27,21,41,10.20
2007,05,27,21,42,10.20
2007,05,27,21,43,10.10
2007,05,27,21,44,10.10
2007,05,27,21,45,10.10
2007,05,27,21,46,10.10
2007,05,27,21,47,10.10
2007,05,27,21,48,10.10
2007,05,27,21,49,10.10
2007,05,27,21,50,10.10
2007,05,27,21,51,10.10
2007,05,27,21,52,10.10
2007,05,27,21,53,10.10
2007,05,27,21,54,10.10
2007,05,27,21,55,10.10
2007,05,27,21,56,10.10
2007,05,27,21,57,10.00
2007,05,27,21,58,10.10
2007,05,27,21,59,10.00
2007,05,27,22,00,10.00
2007,05,27,22,01,10.00
2007,05,27,22,02,10.00
2007,05,27,22,03,10.00
2007,05,27,22,04,10.00
2007,05,27,22,05,10.00
2007,05,27,22,06,10.00
2007,05,27,22,07,10.00
2007,05,27,22,08,10.00
2007,05,27,22,09,10.00
2007,05,27,22,10,10.00
2007,05,27,22,11,10.00
2007,05,27,22,12,10.00
2007,05,27,22,13,10.00
2007,05,27,22,14,10.00
2007,05,27,22,15,9.90
2007,05,27,22,16,9.90
2007,05,27,22,17,9.90
2007,05,27,22,18,9.90
2007,05,27,22,19,9.90
2007,05,27,22,20,9.90
2007,05,27,22,21,9.90
2007,05,27,22,22,9.90
2007,05,27,22,23,9.90
2007,05,27,22,24,9.90
2007,05,27,22,25,9.90
2007,05,27,22,26,9.90
2007,05,27,22,27,9.90
2007,05,27,22,28,9.90
2007,05,27,22,29,9.90
2007,05,27,22,30,9.90
2007,05,27,22,31,9.80
2007,05,27,22,32,9.80
2007,05,27,22,33,9.80
2007,05,27,22,34,9.80
2007,05,27,22,35,9.80
2007,05,27,22,36,9.80
2007,05,27,22,37,9.80
2007,05,27,22,38,9.80
2007,05,27,22,39,9.80
2007,05,27,22,40,9.80
2007,05,27,22,41,9.80
2007,05,27,22,42,9.80
2007,05,27,22,43,9.80
2007,05,27,22,44,9.80
2007,05,27,22,45,9.80
2007,05,27,22,46,9.80
2007,05,27,22,47,9.80
2007,05,27,22,48,9.80
2007,05,27,22,49,9.70
2007,05,27,22,50,9.70
2007,05,27,22,51,9.70
2007,05,27,22,52,9.70
2007,05,27,22,53,9.70
2007,05,27,22,54,9.70
2007,05,27,22,55,9.70
2007,05,27,22,56,9.70
2007,05,27,22,57,9.70
2007,05,27,22,58,9.70
2007,05,27,22,59,9.60
2007,05,27,23,00,9.60
2007,05,27,23,01,9.60
2007,05,27,23,02,9.60
2007,05,27,23,03,9.60
2007,05,27,23,04,9.60
2007,05,27,23,05,9.60
2007,05,27,23,06,9.60
2007,05,27,23,07,9.60
2007,05,27,23,08,9.60
2007,05,27,23,09,9.60
2007,05,27,23,10,9.60
2007,05,27,23,11,9.60
2007,05,27,23,12,9.60
2007,05,27,23,13,9.50
2007,05,27,23,14,9.50
2007,05,27,23,15,9.50
2007,05,27,23,16,9.50
2007,05,27,23,17,9.50
2007,05,27,23,18,9.50
2007,05,27,23,19,9.50
2007,05,27,23,20,9.50
2007,05,27,23,21,9.50
2007,05,27,23,22,9.50
2007,05,27,23,23,9.50
2007,05,27,23,24,9.50
2007,05,27,23,25,9.50
2007,05,27,23,26,9.50
2007,05,27,23,27,9.50
2007,05,27,23,28,9.40
2007,05,27,23,29,9.40
2007,05,27,23,30,9.40
2007,05,27,23,31,9.40
2007,05,27,23,32,9.40
2007,05,27,23,33,9.40
2007,05,27,23,34,9.40
2007,05,27,23,35,9.40
2007,05,27,23,36,9.40
2007,05,27,23,37,9.40
2007,05,27,23,38,9.40
2007,05,27,23,39,9.40
2007,05,27,23,40,9.40
2007,05,27,23,41,9.40
2007,05,27,23,42,9.40
2007,05,27,23,43,9.40
2007,05,27,23,44,9.40
2007,05,27,23,45,9.40
2007,05,27,23,46,9.40
2007,05,27,23,47,9.40
2007,05,27,23,48,9.40
2007,05,27,23,49,9.40
2007,05,27,23,50,9.40
2007,05,27,23,51,9.40
2007,05,27,23,52,9.40
2007,05,27,23,53,9.40
2007,05,27,23,54,9.40
2007,05,27,23,55,9.40
2007,05,27,23,56,9.40
2007,05,27,23,57,9.40
2007,05,27,23,58,9.40
2007,05,27,23,59,9.40
